Wetbulb
71.64 72.87 76.23 75.27 75.09 75.42 75.54 75.00 74.18 74.06 75.11 75.57 76.37 75.85 75.46 75.19 75.77 76.62 77.11 76.58 76.67 76.94 77.28 77.08 76.89 76.95 76.77 76.60 76.64 76.57 76.28 75.82 75.85 76.02 75.99 75.87 75.84 76.11 76.37 75.74 77.22 74.98 76.83
71.54 72.81 75.49 76.03 75.62 75.50 76.11 75.61 75.24 75.20 75.78 76.42 76.51 76.81 76.55 74.32 75.10 76.65 76.91 76.96 77.17 77.34 76.61 76.72 76.83 76.77 76.62 76.76 76.73 76.59 76.51 76.23 76.42 76.62 77.20 76.88 76.68 76.44 76.50 76.02 77.18 74.97 75.87
71.49 72.38 72.95 75.95 75.64 75.74 75.46 74.60 74.33 75.19 76.08 76.58 76.87 76.56 76.37 76.42 76.43 76.73 76.83 77.06 76.42 76.79 77.26 77.03 77.03 77.01 77.16 77.39 77.20 76.90 76.33 76.47 76.31 76.17 77.00 74.22 75.00 76.20 76.28 76.54 75.91 75.09 75.07
71.51 72.25 72.03 74.79 75.20 75.39 74.80 75.43 75.59 75.05 76.42 76.66 76.88 76.27 76.40 76.34 76.80 76.32 76.67 76.26 76.78 77.50 76.82 76.63 76.77 76.85 76.27 75.88 75.54 75.16 74.47 74.75 75.02 75.74 75.75 74.89 73.89 75.60 75.56 75.53 75.68 75.53 75.50
70.96 71.98 72.98 74.17 74.49 74.68 74.03 74.56 75.46 75.90 75.87 76.42 76.73 76.62 76.71 76.84 76.28 76.67 77.07 76.82 76.90 76.71 76.30 76.49 76.41 76.85 76.38 75.57 74.72 73.72 74.08 74.89 75.69 76.35 74.83 73.86 73.21 75.98 75.75 75.20 75.61 75.18 74.73
70.27 71.39 73.11 73.85 73.89 74.19 74.19 74.58 74.86 75.29 75.75 76.20 76.89 76.53 76.71 76.56 76.64 76.80 76.54 76.41 76.52 75.97 75.94 76.87 76.77 76.58 76.46 76.13 75.16 73.30 73.93 75.19 76.24 73.17 72.32 72.77 73.00 74.91 74.55 74.55 75.13 75.23 75.00
69.90 70.83 71.10 73.26 73.19 73.23 73.57 74.19 74.25 73.70 75.74 76.08 75.75 76.17 76.58 76.55 76.43 76.52 76.16 76.13 76.11 75.72 76.30 77.22 77.02 76.13 76.43 76.19 74.52 73.58 74.04 75.00 74.96 73.79 72.41 71.47 72.40 74.49 73.44 72.86 72.44 71.89 71.78
69.70 69.93 70.24 72.87 72.98 73.20 72.94 73.61 73.72 71.72 71.89 75.17 75.52 75.81 77.04 76.13 76.24 76.49 76.30 76.22 75.83 75.46 75.60 76.33 76.58 76.30 75.83 75.47 74.97 75.00 75.33 75.83 75.46 73.73 73.14 72.41 74.74 74.52 73.50 72.87 72.70 72.70 73.04
70.17 70.21 71.44 71.59 72.19 73.31 72.61 73.54 73.64 73.92 71.40 73.41 75.31 76.10 77.33 76.60 75.91 76.02 76.02 75.96 75.79 75.61 75.46 75.21 75.65 76.02 76.02 75.91 76.05 76.33 77.25 76.83 74.99 74.14 73.40 72.79 75.61 74.33 73.83 73.72 74.19 74.65 74.97
69.86 70.90 72.32 73.28 72.38 71.77 72.32 73.67 75.13 74.55 74.53 75.30 75.98 76.10 77.07 76.41 76.10 76.16 77.28 76.69 75.87 75.62 75.12 75.14 75.52 76.38 76.44 76.80 77.27 77.90 77.84 77.80 74.60 73.54 72.75 72.55 75.08 74.00 75.12 75.71 76.31 76.78 76.95
71.22 70.92 71.37 72.38 72.37 72.84 72.48 73.34 74.93 75.31 75.43 75.66 76.23 77.37 76.88 75.90 75.48 75.05 77.07 77.05 76.28 76.50 76.73 77.25 77.53 77.44 77.57 77.48 77.97 78.71 78.36 75.91 73.62 73.27 72.09 74.04 74.68 74.93 75.11 75.99 76.90 77.62 77.59
67.63 69.90 71.45 71.56 71.91 72.72 71.42 72.73 73.26 73.87 75.15 75.40 74.51 75.54 74.62 74.82 74.65 72.59 74.97 77.93 78.00 78.19 78.50 78.53 78.57 78.90 78.39 76.06 75.42 78.17 76.82 74.91 73.85 73.10 72.59 75.07 74.99 75.07 75.55 76.36 77.61 78.44 77.78
70.04 66.92 67.37 69.41 72.04 72.74 71.03 72.26 72.94 72.54 73.46 74.84 73.98 76.20 76.48 75.81 75.46 73.66 74.23 74.71 76.05 77.53 75.36 76.61 76.78 76.60 76.09 76.42 75.53 75.49 74.15 74.60 74.58 74.03 74.39 76.49 76.86 76.74 76.87 77.37 77.69 78.51 77.94
69.15 65.90 66.35 69.99 69.39 71.76 72.30 73.38 73.76 73.73 74.15 73.80 73.81 77.74 78.45 75.95 75.38 73.68 76.17 75.61 76.15 76.90 75.57 75.95 76.15 77.36 75.25 74.33 74.38 73.36 74.38 75.13 75.50 75.01 75.74 77.38 77.30 77.22 77.57 77.71 78.26 78.34 77.22
70.10 70.06 68.01 71.60 71.38 71.29 73.97 73.30 74.18 73.83 71.59 73.81 76.63 74.61 75.29 76.20 72.64 73.18 71.84 74.98 74.58 76.63 76.75 76.45 76.92 76.66 76.63 76.11 75.78 75.88 74.92 75.88 76.71 76.89 76.24 77.24 76.80 77.55 78.02 78.54 78.01 77.17 76.46
71.72 71.80 68.64 70.63 71.63 72.59 73.62 72.91 74.28 71.91 71.55 74.43 77.04 76.86 71.69 74.15 74.92 72.64 70.58 74.48 72.57 77.60 78.12 77.36 79.08 77.92 76.63 75.27 76.17 77.62 77.55 78.17 78.37 78.34 75.91 76.00 77.28 78.22 78.54 78.25 77.76 76.88 76.15
71.92 73.03 73.12 73.76 74.35 76.05 77.65 77.58 77.65 76.70 72.40 75.74 76.46 79.75 71.69 76.00 74.90 68.58 68.57 70.89 77.37 77.99 78.52 77.76 77.83 77.68 77.01 75.94 76.74 77.12 77.95 78.38 78.17 77.60 74.31 75.33 76.60 77.04 77.57 77.06 77.00 77.08 76.18
70.43 73.00 73.29 73.26 74.01 75.64 77.94 75.18 72.57 70.70 72.68 77.40 75.90 77.75 78.99 79.10 79.83 75.40 73.37 73.56 71.78 72.89 75.88 76.29 76.11 75.63 75.40 75.09 73.12 75.26 77.01 77.75 77.92 76.12 75.18 74.81 75.25 75.58 76.56 76.68 76.80 76.98 76.21
71.97 72.63 73.19 73.70 73.73 72.61 77.39 72.47 73.95 76.36 77.40 76.85 72.66 74.43 80.01 79.34 79.37 75.16 72.29 68.40 70.04 71.10 73.59 76.30 76.89 77.30 74.36 72.28 67.26 66.37 75.35 75.33 75.18 74.95 74.69 74.85 74.23 73.48 75.26 76.27 76.66 77.11 75.86
71.85 72.93 74.36 74.50 76.13 76.44 76.92 75.02 77.45 75.77 75.65 78.18 73.36 71.49 76.26 78.79 79.56 77.72 70.36 67.37 69.00 68.94 68.80 79.12 78.98 78.60 77.19 76.98 73.54 69.60 68.15 68.99 68.59 75.41 75.02 74.73 72.98 72.43 74.83 76.24 75.42 75.39 76.15
71.80 72.38 74.04 75.82 77.19 76.13 75.00 72.69 72.94 70.64 75.59 78.32 74.58 76.47 77.46 78.05 79.85 78.20 71.09 67.64 68.35 67.83 68.59 79.43 78.84 76.56 74.69 76.86 69.27 65.64 66.94 64.82 67.60 69.71 74.42 74.14 73.29 73.35 75.31 76.43 76.27 75.17 74.45
71.44 72.20 73.65 75.55 76.49 76.72 76.12 78.25 75.23 74.98 73.33 77.13 74.52 78.32 79.29 78.32 79.09 76.56 78.14 66.30 66.22 66.83 74.78 78.90 78.01 66.50 66.69 74.15 72.14 63.21 61.79 65.45 68.76 72.52 74.11 73.91 74.43 75.05 75.07 75.91 77.08 77.28 74.78
72.19 72.23 73.90 75.69 76.34 77.13 78.14 74.80 71.91 75.82 72.11 74.03 75.01 77.38 77.04 78.29 79.53 79.38 79.33 79.07 69.42 66.94 66.27 75.80 78.20 75.58 67.62 76.54 76.90 70.95 66.15 66.33 68.98 69.56 69.74 71.94 73.70 74.18 68.74 68.23 75.90 74.06 73.11
73.14 73.80 74.70 75.62 76.50 76.69 77.95 76.50 76.71 75.38 73.63 75.32 76.19 75.87 76.70 78.09 78.80 78.35 78.42 79.50 77.10 68.85 72.48 78.52 78.47 78.44 77.11 74.40 75.97 74.41 74.93 69.98 68.12 65.77 69.01 66.87 67.54 73.45 73.24 73.14 68.53 70.38 69.49
72.86 73.38 73.50 75.96 76.40 77.62 77.09 77.56 76.85 75.97 75.09 73.60 76.24 77.18 77.34 79.44 79.11 77.75 78.53 78.05 79.68 77.31 78.70 78.86 78.80 77.90 77.86 76.53 75.54 75.73 72.66 64.89 64.89 66.43 61.24 63.96 67.09 68.69 72.53 71.72 69.87 70.43 69.23
72.19 73.40 74.39 75.43 75.94 77.03 76.88 76.26 76.81 74.95 72.32 73.36 76.28 75.68 74.99 76.23 76.78 78.69 78.32 78.71 79.26 78.87 78.34 78.58 79.69 79.34 78.78 77.39 76.80 76.61 73.88 70.35 69.58 67.61 65.46 64.59 63.71 69.40 70.81 72.33 71.06 66.87 66.85
MSLP
1014.22 1014.49 1014.59 1014.73 1014.81 1014.87 1015.03 1015.35 1015.74 1015.94 1015.90 1015.86 1015.94 1015.91 1015.87 1016.15 1016.14 1016.06 1016.05 1016.12 1016.15 1016.31 1016.29 1016.42 1016.43 1016.40 1016.52 1016.56 1016.55 1016.58 1016.67 1016.74 1016.75 1016.80 1017.01 1017.17 1017.31 1017.36 1017.35 1017.27 1017.11 1017.49 1017.79
1013.66 1014.40 1014.71 1014.73 1014.87 1014.98 1015.16 1015.51 1015.84 1016.06 1016.16 1016.10 1016.19 1016.18 1016.22 1016.69 1016.18 1016.55 1016.43 1016.43 1016.51 1016.53 1016.62 1016.62 1016.71 1016.74 1016.83 1016.84 1016.82 1016.85 1016.91 1016.97 1017.15 1017.18 1017.15 1017.31 1017.42 1017.65 1017.59 1017.48 1017.43 1017.67 1017.91
1013.72 1014.35 1014.70 1014.85 1015.03 1015.19 1015.42 1015.73 1015.93 1016.14 1016.40 1016.28 1016.34 1016.45 1016.52 1016.72 1016.77 1016.75 1016.63 1016.56 1016.81 1016.82 1016.80 1016.87 1016.88 1016.95 1017.08 1017.09 1017.04 1017.00 1017.03 1017.13 1017.24 1017.26 1017.16 1017.09 1017.43 1017.75 1017.80 1017.72 1017.72 1017.91 1017.95
1013.62 1014.20 1014.89 1015.25 1015.26 1015.45 1015.77 1015.95 1016.13 1016.50 1016.58 1016.50 1016.45 1016.56 1016.67 1016.88 1016.79 1016.79 1016.81 1016.95 1016.98 1016.97 1017.04 1017.12 1017.13 1017.19 1017.25 1017.30 1017.21 1017.14 1017.12 1017.26 1017.37 1017.12 1017.04 1016.99 1017.11 1017.67 1017.85 1017.86 1017.90 1017.98 1018.15
1014.04 1014.63 1015.22 1015.41 1015.54 1015.77 1015.88 1016.16 1016.27 1016.69 1016.78 1016.75 1016.73 1016.61 1016.74 1016.87 1016.94 1016.89 1016.92 1017.09 1017.16 1017.20 1017.24 1017.33 1017.33 1017.40 1017.47 1017.44 1017.32 1017.12 1017.09 1017.18 1017.28 1016.77 1017.03 1016.82 1017.20 1017.84 1017.96 1017.99 1018.08 1018.17 1018.28
1014.30 1014.89 1015.43 1015.67 1015.71 1015.85 1016.27 1016.34 1016.54 1016.85 1017.00 1016.91 1016.76 1016.90 1016.83 1016.89 1017.06 1017.11 1017.19 1017.27 1017.29 1017.34 1017.48 1017.41 1017.42 1017.48 1017.49 1017.44 1017.45 1017.25 1017.12 1016.96 1016.92 1016.39 1016.71 1017.19 1017.51 1017.92 1018.04 1018.07 1018.00 1018.24 1018.37
1014.67 1015.34 1015.82 1015.92 1016.04 1016.22 1016.57 1016.63 1016.67 1016.98 1017.07 1016.90 1017.04 1017.02 1016.95 1017.03 1017.23 1017.31 1017.26 1017.38 1017.40 1017.54 1017.58 1017.49 1017.49 1017.54 1017.52 1017.44 1017.49 1017.32 1017.25 1017.18 1016.63 1016.43 1016.77 1017.47 1017.97 1017.97 1018.00 1018.08 1018.05 1018.22 1018.41
1014.72 1015.48 1015.82 1016.08 1016.33 1016.43 1016.62 1016.90 1016.91 1017.03 1017.19 1016.98 1017.07 1017.08 1017.03 1017.21 1017.35 1017.41 1017.39 1017.47 1017.47 1017.65 1017.62 1017.57 1017.54 1017.64 1017.59 1017.44 1017.36 1017.16 1017.10 1017.04 1016.37 1016.49 1016.89 1017.68 1017.98 1017.96 1017.90 1017.96 1018.23 1018.32 1018.39
1014.43 1015.41 1015.93 1016.39 1016.48 1016.48 1016.78 1016.91 1017.05 1017.07 1017.03 1016.86 1016.93 1017.00 1017.05 1017.17 1017.37 1017.44 1017.46 1017.41 1017.51 1017.64 1017.56 1017.57 1017.53 1017.41 1017.28 1017.16 1016.97 1016.83 1016.80 1016.80 1016.49 1016.42 1016.86 1017.53 1017.68 1017.85 1017.86 1017.91 1018.07 1018.11 1018.16
1014.45 1015.61 1016.17 1016.36 1016.62 1016.82 1017.08 1017.03 1017.21 1017.08 1016.94 1016.80 1016.85 1016.82 1016.93 1017.04 1017.24 1017.39 1017.41 1017.42 1017.52 1017.52 1017.43 1017.33 1017.18 1017.12 1016.95 1016.77 1016.68 1016.60 1016.49 1016.38 1015.98 1016.10 1016.92 1017.49 1017.68 1017.75 1017.83 1017.75 1017.71 1017.65 1017.67
1014.52 1015.32 1015.98 1016.44 1016.75 1016.93 1017.11 1017.05 1016.95 1016.86 1016.56 1016.74 1016.86 1016.92 1017.03 1016.75 1016.99 1017.05 1017.08 1017.16 1017.15 1017.12 1016.93 1016.61 1016.78 1016.79 1016.66 1016.57 1016.40 1016.23 1016.22 1015.92 1015.63 1016.08 1016.96 1017.31 1017.39 1017.37 1017.46 1017.45 1017.47 1017.36 1017.18
1015.53 1015.87 1016.33 1016.96 1016.97 1016.81 1016.67 1016.83 1016.76 1016.79 1017.00 1017.30 1017.22 1017.11 1017.08 1016.55 1016.08 1016.05 1016.20 1016.25 1016.37 1016.55 1016.28 1016.06 1016.26 1016.47 1016.43 1016.00 1015.94 1015.79 1015.75 1014.89 1015.45 1016.03 1016.54 1016.85 1016.96 1017.02 1017.00 1017.06 1017.17 1017.13 1016.93
1016.06 1017.56 1016.85 1017.12 1017.02 1016.75 1016.60 1016.60 1016.25 1016.74 1017.61 1017.54 1016.91 1016.77 1016.11 1015.54 1015.38 1015.10 1015.35 1016.05 1016.21 1015.99 1016.03 1015.86 1015.73 1015.87 1015.33 1015.25 1014.98 1014.77 1014.79 1014.50 1015.47 1015.66 1016.46 1016.65 1016.74 1016.88 1016.86 1016.85 1016.92 1016.84 1016.79
1017.06 1017.93 1017.30 1016.24 1016.90 1016.93 1016.54 1016.00 1015.91 1016.68 1017.16 1016.83 1016.44 1015.92 1015.57 1015.45 1016.19 1016.08 1015.11 1015.84 1016.02 1015.53 1015.21 1015.46 1014.85 1014.25 1014.34 1014.11 1014.27 1014.37 1014.18 1014.39 1015.07 1015.69 1016.41 1016.54 1016.53 1016.65 1016.63 1016.69 1016.62 1016.67 1016.65
1016.08 1016.84 1017.45 1016.66 1016.76 1016.80 1016.84 1016.26 1016.12 1017.26 1017.48 1017.10 1016.00 1016.89 1016.07 1015.47 1016.37 1016.38 1015.89 1016.04 1015.29 1014.86 1014.42 1014.55 1014.61 1014.58 1014.44 1014.43 1014.60 1014.68 1014.78 1014.88 1014.85 1015.25 1015.87 1016.33 1016.59 1016.57 1016.64 1016.63 1016.55 1016.56 1016.55
1014.67 1015.34 1016.78 1016.69 1016.48 1016.77 1016.15 1015.88 1015.58 1017.17 1016.41 1015.68 1015.08 1015.66 1016.21 1015.99 1016.10 1015.86 1016.13 1018.00 1015.12 1014.23 1013.67 1013.89 1014.56 1014.96 1014.81 1014.78 1015.07 1015.22 1015.40 1015.39 1015.53 1015.18 1015.26 1016.08 1016.68 1016.75 1016.79 1016.79 1016.66 1016.57 1016.54
1013.44 1014.80 1015.34 1015.40 1015.22 1015.35 1015.16 1014.91 1015.07 1015.06 1015.62 1015.20 1014.92 1014.75 1015.69 1016.94 1017.58 1017.55 1017.91 1017.54 1014.71 1013.39 1013.36 1014.14 1014.61 1014.55 1014.72 1014.40 1014.49 1014.76 1015.13 1015.20 1015.38 1015.42 1015.99 1016.35 1016.79 1017.08 1016.89 1016.94 1016.80 1016.63 1016.58
1013.09 1013.78 1014.54 1014.63 1015.14 1015.45 1015.93 1016.16 1016.52 1015.90 1015.78 1014.96 1014.89 1014.60 1014.99 1015.86 1016.52 1017.55 1017.72 1016.80 1016.57 1015.62 1015.21 1014.94 1015.88 1015.17 1014.64 1014.19 1014.23 1014.22 1014.84 1015.01 1015.24 1015.48 1015.95 1016.49 1016.62 1016.69 1016.92 1016.87 1016.86 1016.72 1016.64
1013.11 1013.69 1014.03 1014.29 1014.77 1015.68 1016.29 1016.77 1016.69 1016.10 1015.26 1015.11 1015.66 1016.17 1015.37 1015.93 1016.38 1018.04 1019.15 1017.48 1017.42 1016.80 1016.19 1015.94 1016.02 1015.54 1014.77 1016.32 1017.01 1016.70 1015.32 1015.21 1015.47 1015.77 1015.99 1016.38 1016.52 1016.32 1016.63 1016.90 1017.04 1016.84 1016.68
1013.12 1013.75 1013.94 1014.14 1014.69 1015.70 1016.26 1016.81 1015.88 1015.86 1015.70 1015.54 1016.53 1016.14 1015.97 1015.40 1016.65 1017.26 1018.76 1016.80 1017.28 1018.27 1019.65 1017.20 1016.97 1015.64 1015.07 1015.28 1017.25 1019.37 1017.42 1017.50 1017.87 1016.05 1016.18 1016.33 1016.36 1016.14 1016.07 1016.44 1017.09 1017.00 1016.95
1013.03 1013.83 1014.13 1014.38 1014.83 1015.44 1016.04 1016.64 1016.49 1016.37 1015.88 1015.71 1016.44 1016.47 1015.55 1014.84 1016.14 1016.68 1018.48 1018.01 1017.02 1018.47 1019.53 1018.01 1017.11 1016.28 1015.97 1016.59 1018.59 1019.57 1019.26 1017.84 1017.18 1017.54 1015.94 1016.29 1016.40 1016.17 1016.01 1016.25 1016.83 1017.09 1016.87
1012.87 1013.83 1014.43 1014.81 1015.04 1015.31 1015.27 1015.40 1015.60 1015.71 1015.88 1015.48 1015.72 1015.88 1015.54 1015.12 1015.43 1015.87 1016.24 1019.01 1020.63 1019.82 1018.66 1017.32 1016.70 1017.37 1017.84 1017.60 1017.74 1019.02 1019.04 1017.86 1018.18 1017.72 1016.67 1016.67 1016.50 1015.94 1016.53 1016.18 1016.20 1016.36 1016.58
1012.63 1013.49 1014.34 1015.04 1015.23 1015.44 1015.39 1015.68 1015.87 1016.03 1016.78 1016.29 1015.65 1015.78 1015.91 1015.68 1015.75 1016.28 1015.82 1016.11 1018.86 1018.59 1018.04 1017.93 1016.95 1016.47 1017.49 1016.86 1016.46 1016.89 1017.95 1017.59 1018.11 1017.88 1018.72 1018.44 1017.06 1016.79 1016.47 1016.43 1016.64 1017.37 1017.55
1012.24 1013.06 1013.95 1014.96 1015.32 1015.46 1015.45 1015.52 1015.62 1015.75 1016.00 1015.52 1015.41 1015.64 1015.78 1015.68 1015.90 1016.25 1016.53 1016.32 1017.18 1018.67 1018.51 1017.76 1017.03 1016.70 1016.70 1016.94 1016.52 1015.78 1015.84 1018.29 1018.76 1019.18 1019.14 1019.99 1018.22 1017.25 1015.94 1018.00 1017.30 1018.79 1017.26
1011.47 1012.36 1013.55 1014.30 1015.02 1015.12 1015.56 1015.67 1015.72 1015.79 1015.80 1015.89 1015.51 1015.72 1015.97 1015.77 1015.48 1015.81 1016.05 1016.18 1016.57 1016.79 1017.04 1016.74 1016.88 1017.34 1017.25 1017.41 1016.99 1016.13 1017.03 1017.13 1017.41 1018.26 1020.73 1020.32 1018.36 1018.19 1018.63 1018.07 1017.80 1017.56 1017.59
1010.90 1011.88 1012.95 1013.91 1014.73 1015.16 1015.48 1015.79 1015.94 1016.22 1015.96 1016.22 1016.02 1015.86 1015.75 1015.87 1015.95 1015.55 1015.42 1015.71 1015.80 1016.00 1015.89 1016.09 1016.76 1017.19 1017.26 1017.31 1016.73 1015.67 1015.97 1017.51 1016.95 1017.51 1018.73 1019.06 1018.89 1019.49 1019.64 1019.38 1019.01 1017.56 1017.53
Wind_Speed
5 11 11 14 14 14 16 16 16 9 9 11 11 12 13 12 12 13 13 14 13 11 12 12 11 12 11 10 10 10 11 11 12 14 15 14 12 10 8 5 7 13 11
13 13 11 14 15 15 16 15 16 13 12 14 13 14 16 18 6 13 14 13 13 13 13 13 13 13 11 10 9 8 7 7 9 11 14 14 12 10 10 15 15 11 10
15 13 12 13 15 15 15 15 14 14 13 14 15 14 14 14 13 13 13 14 14 13 13 13 13 12 10 10 9 8 5 6 6 9 11 10 10 11 10 12 13 11 9
12 13 11 11 15 16 16 15 14 13 14 14 15 15 14 13 13 13 14 14 12 12 12 12 10 10 10 9 6 4 2 3 2 4 5 1 10 9 9 9 9 8 7
14 13 12 14 15 17 16 16 15 14 13 14 14 13 14 13 12 12 13 12 12 12 11 10 9 9 10 9 5 2 4 4 4 10 4 8 8 8 7 6 8 7 2
16 14 15 15 16 17 16 16 16 16 14 13 13 12 11 13 11 12 12 11 10 10 9 8 9 9 9 8 4 1 5 9 10 6 9 12 9 8 7 6 7 6 5
16 14 14 18 16 14 13 14 17 16 14 14 11 10 10 10 10 10 11 10 8 8 8 10 11 9 8 6 2 2 6 8 6 5 9 9 6 8 6 5 4 3 3
18 15 15 16 17 17 15 15 17 16 12 9 9 8 10 9 9 9 9 9 7 7 7 8 9 7 6 5 4 5 7 9 1 6 9 8 7 6 5 4 1 1 3
19 16 13 12 14 19 14 16 15 14 8 4 7 7 9 9 9 9 9 8 7 7 6 6 6 7 6 6 6 8 9 10 9 6 11 6 8 5 3 2 3 4 6
20 16 11 9 9 10 8 12 13 12 9 8 9 9 11 13 11 10 9 8 7 6 6 8 9 8 8 8 9 9 10 12 8 10 8 5 7 4 0 1 4 5 7
8 15 12 11 9 6 5 8 8 8 9 9 8 10 9 7 10 12 7 10 9 10 12 13 11 10 10 10 12 13 12 6 7 8 5 9 6 3 0 4 5 6 7
5 11 14 7 8 5 6 4 4 4 2 3 5 7 7 8 7 10 11 14 14 14 14 14 13 12 12 7 7 14 6 5 9 8 4 9 5 2 1 2 5 5 5
13 16 3 6 3 2 4 4 4 3 2 1 8 8 8 5 5 7 6 6 7 13 7 9 8 9 12 9 9 9 7 6 6 4 7 9 6 3 3 3 4 5 6
17 23 12 8 5 6 5 5 5 3 5 10 10 8 2 4 5 8 3 8 6 5 10 7 3 1 4 2 5 2 7 4 6 5 6 9 8 6 6 5 5 7 7
24 20 9 8 8 7 7 4 5 6 4 11 6 10 5 2 6 9 3 8 5 4 4 5 4 4 2 5 6 6 6 5 4 4 5 10 7 8 8 8 8 8 8
17 17 23 16 14 15 11 15 8 14 14 6 1 6 10 9 3 3 5 9 9 4 4 5 1 4 2 5 3 1 4 5 5 2 5 7 8 8 10 8 7 7 7
16 18 14 9 7 4 4 3 1 2 6 3 3 3 7 13 4 6 7 7 10 5 6 4 4 3 3 4 5 4 5 4 6 3 5 4 5 5 10 8 5 6 7
13 12 16 13 12 7 3 3 5 8 6 4 5 3 3 3 5 16 6 8 8 8 11 5 4 4 1 3 6 1 3 4 6 7 2 4 4 5 6 9 6 5 8
14 12 9 12 12 7 5 12 4 9 2 3 8 7 2 1 5 13 11 7 10 12 14 5 1 3 1 14 11 16 3 1 3 5 5 1 2 2 5 7 7 6 9
13 10 7 6 9 9 4 12 4 4 4 4 6 6 11 2 4 8 2 3 8 6 4 5 4 3 3 6 14 6 16 11 12 2 5 3 4 2 2 4 4 5 8
12 10 8 7 6 7 6 6 4 4 4 3 8 9 6 5 2 6 10 9 9 4 9 5 4 9 7 5 12 8 4 12 12 11 1 3 3 6 6 3 4 3 4
16 11 9 9 7 5 3 1 4 4 1 3 3 4 2 4 5 5 5 18 15 10 9 5 6 9 6 7 7 4 3 7 8 11 3 1 3 2 7 4 2 1 6
16 15 11 9 9 7 4 3 5 5 8 4 4 4 3 3 2 5 5 4 12 2 2 8 5 5 5 3 2 4 4 3 5 3 12 13 6 4 8 8 5 14 12
18 17 14 13 9 8 4 3 5 3 5 3 2 4 4 4 2 4 5 1 9 5 7 1 4 5 5 5 3 3 2 14 5 3 8 15 10 8 6 9 8 5 9
16 16 15 13 11 7 7 4 3 5 1 4 5 6 3 1 1 5 2 2 3 1 1 2 4 5 2 4 3 4 8 3 1 4 10 8 4 4 7 8 7 6 7
16 15 17 14 11 8 7 7 6 6 2 4 3 3 5 6 4 4 2 4 3 4 5 3 2 3 2 1 3 5 4 2 4 5 2 4 1 2 3 5 6 12 13
Wind_Direction
112 110 103 111 111 112 114 127 124 148 124 111 106 97 95 89 91 90 88 97 101 97 93 92 90 91 86 78 75 74 77 87 95 99 99 93 87 74 57 135 127 95 94
127 109 109 110 112 114 114 116 126 125 108 103 103 98 97 92 83 93 99 103 102 94 94 92 91 91 95 95 90 89 93 101 101 114 114 103 92 84 70 62 83 102 99
119 126 111 107 113 117 113 113 113 105 102 100 98 93 96 106 100 102 105 101 99 102 100 94 92 102 98 104 103 98 96 101 121 129 157 105 98 84 85 90 99 103 101
116 111 116 110 119 117 110 107 104 109 105 100 97 93 93 103 102 107 101 102 101 96 89 86 91 104 106 96 92 92 130 166 173 161 230 224 98 92 92 89 99 107 119
92 102 117 113 115 120 112 108 102 95 96 94 93 96 100 103 110 111 102 104 100 91 89 88 93 116 106 100 96 22 324 304 269 247 232 128 101 103 105 113 125 105 112
105 103 111 117 111 111 109 110 105 94 89 92 85 94 104 115 114 109 110 109 101 94 91 94 105 111 126 107 98 339 306 307 296 122 105 68 72 111 103 95 93 94 106
107 113 113 111 114 106 103 100 98 96 79 92 99 105 114 115 118 115 118 115 111 105 101 89 112 106 117 129 127 256 274 293 279 94 94 100 105 113 109 101 108 121 163
117 123 117 110 112 106 103 108 105 95 73 82 110 128 118 122 121 129 127 129 128 123 114 115 121 130 135 139 196 249 269 287 281 99 95 96 126 117 109 94 38 255 243
110 114 120 114 115 105 100 112 110 110 102 86 126 138 138 136 142 145 143 147 152 143 142 147 153 156 159 178 208 236 251 260 263 137 127 124 124 118 105 104 272 269 268
122 124 118 116 104 109 124 115 117 127 144 186 177 171 167 160 159 156 164 165 169 167 181 193 195 186 195 206 221 234 248 261 249 99 82 110 121 114 256 315 282 278 273
109 128 126 119 111 109 115 125 120 142 181 193 185 197 197 177 175 166 174 162 183 199 203 210 205 203 215 228 233 234 237 247 158 98 112 129 137 136 345 336 324 313 300
186 63 123 124 140 161 134 145 148 173 229 278 241 214 215 234 168 156 175 189 199 211 217 222 208 212 222 220 222 235 229 201 102 111 133 135 123 137 101 360 347 332 336
95 69 323 117 170 201 159 183 195 161 175 9 297 265 201 163 172 175 173 191 210 215 216 223 229 216 218 218 209 196 200 104 108 100 126 130 112 92 87 61 26 7 44
137 150 183 140 193 196 205 196 202 186 210 168 221 228 231 192 39 346 237 175 205 200 220 207 191 247 100 63 124 193 84 83 131 131 133 133 116 113 103 69 48 39 35
136 164 194 167 202 201 234 227 219 87 263 240 195 84 290 109 193 220 44 14 287 189 134 135 197 221 149 54 39 18 94 98 49 121 132 126 115 111 105 89 69 48 35
140 145 178 193 200 203 208 207 209 151 223 198 102 113 58 357 315 301 59 96 287 217 114 141 158 271 188 141 118 52 40 70 68 21 150 118 127 126 105 90 75 67 51
145 151 149 158 159 178 185 234 278 325 123 152 112 107 132 212 179 63 243 271 210 153 130 124 242 258 274 142 145 192 155 140 117 45 55 121 125 131 120 110 99 89 75
134 138 163 154 154 182 114 337 51 301 289 121 151 175 207 293 15 49 295 271 14 31 336 154 240 229 13 232 27 226 110 143 144 109 98 125 178 159 155 142 139 104 78
135 142 211 146 142 125 125 29 229 219 48 79 61 321 187 302 49 105 234 310 26 17 346 329 272 51 260 95 105 293 4 187 110 124 110 179 160 281 142 168 144 102 82
138 150 197 150 133 128 154 172 239 19 334 107 119 317 295 254 89 148 139 332 61 18 220 311 352 7 360 18 57 38 6 332 343 38 137 232 75 239 89 98 160 113 92
143 159 147 140 131 142 170 144 221 170 270 124 141 186 258 310 56 36 114 51 25 308 266 352 347 12 350 44 107 59 183 277 299 312 195 86 196 221 105 76 57 146 126
152 160 154 137 148 230 200 220 162 178 360 284 122 163 130 299 21 58 54 114 161 264 323 336 16 74 7 301 89 137 301 326 46 282 43 106 261 261 64 89 92 275 152
151 156 166 148 162 215 250 121 27 120 34 274 155 149 178 253 199 59 30 53 124 162 255 289 355 98 197 216 198 189 160 233 128 321 19 357 304 86 147 272 42 23 14
160 160 161 153 183 202 228 180 213 185 200 181 208 130 162 197 263 167 134 326 127 187 231 35 46 355 9 354 321 318 176 50 340 61 31 343 319 316 181 82 71 348 5
166 158 160 161 178 202 155 154 228 262 25 344 148 124 92 264 255 264 140 79 36 27 51 35 45 17 333 355 334 330 94 49 189 114 108 255 335 18 359 117 175 182 121
164 156 158 166 173 173 180 174 229 294 285 8 187 178 188 184 200 234 210 107 315 347 355 0 356 280 321 342 303 310 37 21 241 135 163 242 153 262 101 71 345 42 12